Regional Weather Roundup
Issued by NWS Green Bay, WI

Home | Current Version | Previous Version | Graphics & Text | Print | Product List | Glossary Off
Versions: 1 2 3 4 5 6 7 8 9 10 11 12 13 14 15 16 17 18 19 20 21 22 23 24 25 26 27 28 29 30 31 32 33 34 35 36 37 38 39 40 41 42 43 44 45 46 47 48 49 50

000
ASUS43 KGRB 230711
RWRGRB

NORTH-CENTRAL AND NORTHEAST WISCONSIN REGIONAL WEATHER ROUNDUP
NATIONAL WEATHER SERVICE GREEN BAY WI
200 AM CDT TUE MAY 23 2017

WIZ005-009-010>012-018-019-230800-
NORTH CENTRAL WISCONSIN

CITY           SKY/WX    TMP DP  RH WIND       PRES   REMARKS
IRONWOOD       CLOUDY    44  43  96 CALM      29.83S
MANITOWISH WTR FOG       39  39 100 CALM      29.82F VSB 1/2
ARBOR VITAE    MOCLDY    39  38  94 CALM      29.81F
EAGLE RIVER    FOG       42  42 100 CALM      29.81F VSB 1
LAND O LAKES   MOCLDY    44  44  99 CALM      29.83F
RHINELANDER    MOCLDY    41  39  93 CALM      29.82F
PHILLIPS       CLOUDY    37  37 100 CALM      29.80F FOG
ANTIGO         MOCLDY    45  43  91 E5        29.83S
TOMAHAWK       MOCLDY    39  38  97 CALM      29.82S
MERRILL        CLOUDY    43  43 100 CALM      29.83S
$$

WIZ013-073-230800-
NORTHEAST WISCONSIN

CITY           SKY/WX    TMP DP  RH WIND       PRES   REMARKS
IRON MOUNTAIN  FOG       35  34  96 CALM      29.82S VSB 1
MARINETTE      CLEAR     43  42  97 CALM      29.85R
OCONTO         PTCLDY    43  42  99 CALM      29.83F
$$

WIZ017-030-035>037-045-230800-
CENTRAL WISCONSIN

CITY           SKY/WX    TMP DP  RH WIND       PRES   REMARKS
MEDFORD        MOCLDY    45  42  90 E5        29.80F
WAUSAU         CLOUDY    49  42  77 E5        29.80S
MOSINEE        CLOUDY    48  43  81 E6        29.82S
MARSHFIELD     LGT RAIN  50  44  80 SE6       29.81R
WISC RAPIDS    RAIN      51  50  96 SE5       29.83R FOG
STEVENS POINT  CLOUDY    50  44  78 CALM      29.81S
WAUPACA        CLOUDY    55  47  72 NE8       29.81S
SHAWANO        PTCLDY    51  46  82 E5        29.83F
CLINTONVILLE   CLOUDY    50  45  81 NE3       29.82F
WAUTOMA        LGT RAIN  55  52  88 SW6       29.80F
$$

WIZ038-039-048-051-230800-
FOX VALLEY

CITY           SKY/WX    TMP DP  RH WIND       PRES   REMARKS
NWS GREEN BAY  CLOUDY    50  46  86 E5        29.82F
APPLETON       CLOUDY    54  41  62 E8        29.80F
OSHKOSH        MOCLDY    56  52  86 NE5       29.78F
FOND DU LAC    MOCLDY    57  52  83 S7        29.79F
$$

WIZ022-050-052-230800-
EAST CENTRAL WISCONSIN

CITY           SKY/WX    TMP DP  RH WIND       PRES   REMARKS
EPHRAIM        FAIR      46  44  92 SE3       29.84S
WASHINGTON ISL PTSUNNY   37  37 100 CALM      29.84S FOG
STURGEON BAY   CLEAR     45  44  97 E3        29.84F
MANITOWOC      PTCLDY    52  46  80 VRB3      29.83F
SHEBOYGAN      MOCLDY    53  52  96 NE3       29.81F
$$

LMZ563-521-522-541>543-230800-
LAKESHORE

STATION/POSITION TIME  TEMP    WIND        PRES    VSBY  WAVE
                       AIR SEA DIR/SP/G                  HT/PER
                 (UTC) (F)     (DEG/KT/KT) (MB)    (MI)  (FT/S)
SHEBOYGAN LKSHOR 0700   53      20/  4/  5 1009.4F
KEWAUNEE LKSHORE 0648           10/  3/  4 1009.9F
NORTHPORT PIER   0640   46     200/  3/  5 1010.8S
N MID LAKE BUOY  0650   42 39  210/  4/  6 1011.7F         2/ 6
CHAMBERS ISLAND  0640   42      CALM  /  1 1010.2F
MENOMINEE LKSHOR 0648             CALM     1009.7F
$$



USA.gov is the U.S. government's official web portal to all federal, state and local government web resources and services.